Location: Circle Lane School (historical)
(41.2781°N, 96.3214°W)
Time: 23:32:01
(UTC+00:00)

Daily predictions for brighter satellites

Satellite Brightness Start Highest point End
(mag) Time Altitude Azimuth Time Altitude Azimuth Time Altitude Azimuth
CZ-4B R/B 4.1 12:00:05 10° N 12:04:33 27° WNW 12:07:37 17° WSW
DMSP B5D1-3 4.4 12:06:39 10° S 12:11:44 77° WSW 12:16:51 10° NNW
CZ-2C R/B 4.4 12:07:30 10° SSW 12:11:44 32° W 12:15:56 10° NNW
Aureole 1 Rocket 4.2 12:03:54 10° NNW 12:11:45 68° WSW 12:17:55 10° S
Cosmos 2360 4.5 12:09:22 10° SSW 12:15:04 74° ESE 12:20:48 10° NNE
NOSS 8 (H) 4.3 12:11:42 10° SW 12:15:05 71° NW 12:18:35 10° NNE
Cosmos 405 Rocket 3.9 12:12:52 10° S 12:16:44 47° E 12:20:34 10° NNE
Tiangong 1 0.9 12:17:35 26° WSW 12:18:27 40° SSW 12:20:39 10° SE
Cosmos 1862 Rocket 4.4 12:15:00 10° S 12:19:12 54° E 12:23:28 10° NNE
COSMO-SKYMED 1 3.2 12:16:55 10° SSW 12:20:51 33° W 12:24:48 10° NNW
Cosmos 1733 Rocket 3.4 12:19:03 10° N 12:23:24 68° E 12:27:45 10° SSE
OAO 3 Rocket 4.2 12:20:20 13° WSW 12:24:27 39° S 12:29:04 10° ESE
Cosmos 2082 4.5 12:22:00 10° NW 12:26:56 31° WSW 12:31:51 10° SSW
Cosmos 2278 4.4 12:23:27 10° WSW 12:28:32 33° WNW 12:33:40 10° N
Radarsat Rocket 4.0 12:24:05 10° N 12:29:46 56° WNW 12:35:34 10° SW
SJ 16-02 1.3 12:27:11 10° SSW 12:31:36 73° WNW 12:36:03 10° NNE
EO 1 Del DPAF 3.7 12:31:00 10° S 12:34:36 40° W 12:38:14 10° NNW
Meteor 2-17 Rocket 4.5 12:29:05 10° SSW 12:34:59 57° W 12:40:58 10° N
Cosmos 2123 Rocket 4.4 12:32:20 10° NNW 12:38:04 41° W 12:43:49 10° SSW
USA 234 4.1 12:31:44 10° NE 12:38:08 55° SE 12:44:30 10° SSW
Cosmos 2263 Rocket 3.8 12:35:36 10° N 12:40:44 34° ENE 12:45:52 10° ESE
CSL-04 Rocket 4.3 12:35:51 10° NNE 12:41:06 61° ESE 12:46:19 10° S
Cosmos 2227 4.4 12:36:35 10° NNW 12:42:15 79° ENE 12:47:52 10° SSE
Genesis I 4.3 12:39:45 10° WSW 12:43:07 27° NW 12:46:32 10° NNE
Cosmos 1048 Rocket 3.9 12:38:56 10° NNW 12:44:07 79° WSW 12:49:13 10° SSE
Cosmos 2322 Rocket 3.6 12:40:28 10° S 12:45:48 45° ESE 12:51:12 10° NE
AQUARIUS 4.4 12:44:21 10° NNE 12:48:51 78° ESE 12:53:20 10° S
Lacrosse 5 rocket 1.3 12:45:24 10° NW 12:49:18 83° NE 12:53:26 10° SE
Meteor 1-26 Rocket 4.3 12:44:48 10° SSW 12:50:42 75° W 12:56:36 10° N
